Year,Month,Day,Hour,Minute,Value (Times are PST for temperature in C)
2011,06,26,00,02,11.20
2011,06,26,00,03,11.20
2011,06,26,00,04,11.20
2011,06,26,00,05,11.10
2011,06,26,00,06,11.10
2011,06,26,00,07,11.10
2011,06,26,00,08,11.10
2011,06,26,00,09,11.20
2011,06,26,00,10,11.20
2011,06,26,00,11,11.20
2011,06,26,00,12,11.20
2011,06,26,00,13,11.20
2011,06,26,00,14,11.20
2011,06,26,00,15,11.20
2011,06,26,00,16,11.20
2011,06,26,00,17,11.20
2011,06,26,00,18,11.20
2011,06,26,00,19,11.20
2011,06,26,00,20,11.20
2011,06,26,00,21,11.20
2011,06,26,00,22,11.20
2011,06,26,00,23,11.10
2011,06,26,00,24,11.10
2011,06,26,00,25,11.10
2011,06,26,00,26,11.10
2011,06,26,00,27,11.10
2011,06,26,00,28,11.10
2011,06,26,00,29,11.10
2011,06,26,00,30,11.10
2011,06,26,00,31,11.10
2011,06,26,00,32,11.00
2011,06,26,00,33,11.00
2011,06,26,00,34,10.90
2011,06,26,00,35,10.90
2011,06,26,00,36,10.90
2011,06,26,00,37,10.80
2011,06,26,00,38,10.80
2011,06,26,00,39,10.80
2011,06,26,00,40,10.80
2011,06,26,00,41,10.70
2011,06,26,00,42,10.70
2011,06,26,00,43,10.70
2011,06,26,00,44,10.70
2011,06,26,00,45,10.60
2011,06,26,00,46,10.60
2011,06,26,00,47,10.60
2011,06,26,00,48,10.50
2011,06,26,00,49,10.50
2011,06,26,00,50,10.40
2011,06,26,00,51,10.40
2011,06,26,00,52,10.40
2011,06,26,00,53,10.40
2011,06,26,00,54,10.40
2011,06,26,00,55,10.40
2011,06,26,00,56,10.40
2011,06,26,00,57,10.40
2011,06,26,00,58,10.40
2011,06,26,00,59,10.40
2011,06,26,01,00,10.40
2011,06,26,01,01,10.40
2011,06,26,01,02,10.40
2011,06,26,01,03,10.30
2011,06,26,01,04,10.30
2011,06,26,01,05,10.30
2011,06,26,01,06,10.30
2011,06,26,01,07,10.30
2011,06,26,01,08,10.30
2011,06,26,01,09,10.30
2011,06,26,01,10,10.30
2011,06,26,01,11,10.30
2011,06,26,01,12,10.20
2011,06,26,01,13,10.20
2011,06,26,01,14,10.20
2011,06,26,01,15,10.20
2011,06,26,01,16,10.20
2011,06,26,01,17,10.20
2011,06,26,01,18,10.20
2011,06,26,01,19,10.20
2011,06,26,01,20,10.20
2011,06,26,01,21,10.20
2011,06,26,01,22,10.20
2011,06,26,01,23,10.10
2011,06,26,01,24,10.10
2011,06,26,01,25,10.10
2011,06,26,01,26,10.10
2011,06,26,01,27,10.10
2011,06,26,01,28,10.10
2011,06,26,01,29,10.10
2011,06,26,01,30,10.10
2011,06,26,01,31,10.10
2011,06,26,01,32,10.00
2011,06,26,01,33,10.00
2011,06,26,01,35,10.00
2011,06,26,01,36,9.90
2011,06,26,01,37,9.90
2011,06,26,01,38,9.90
2011,06,26,01,40,9.90
2011,06,26,01,41,9.90
2011,06,26,01,42,9.80
2011,06,26,01,43,9.80
2011,06,26,01,44,9.90
2011,06,26,01,45,9.90
2011,06,26,01,46,9.90
2011,06,26,01,47,9.90
2011,06,26,01,48,9.80
2011,06,26,01,49,9.80
2011,06,26,01,50,9.80
2011,06,26,01,51,9.90
2011,06,26,01,53,9.90
2011,06,26,01,54,9.90
2011,06,26,01,55,10.00
2011,06,26,01,56,10.00
2011,06,26,01,57,10.10
2011,06,26,01,58,10.10
2011,06,26,01,59,10.10
2011,06,26,02,00,10.10
2011,06,26,02,02,10.20
2011,06,26,02,03,10.20
2011,06,26,02,04,10.20
2011,06,26,02,05,10.20
2011,06,26,02,06,10.20
2011,06,26,02,07,10.20
2011,06,26,02,08,10.20
2011,06,26,02,09,10.30
2011,06,26,02,11,10.30
2011,06,26,02,12,10.30
2011,06,26,02,13,10.20
2011,06,26,02,14,10.20
2011,06,26,02,15,10.20
2011,06,26,02,17,10.20
2011,06,26,02,18,10.20
2011,06,26,02,19,10.20
2011,06,26,02,20,10.10
2011,06,26,02,21,10.10
2011,06,26,02,22,10.10
2011,06,26,02,23,10.00
2011,06,26,02,24,10.00
2011,06,26,02,25,10.00
2011,06,26,02,27,10.00
2011,06,26,02,28,9.90
2011,06,26,02,29,9.90
2011,06,26,02,32,9.90
2011,06,26,02,33,9.90
2011,06,26,02,34,9.90
2011,06,26,02,35,9.90
2011,06,26,02,36,9.90
2011,06,26,02,37,9.90
2011,06,26,02,38,9.80
2011,06,26,02,39,9.80
2011,06,26,02,40,9.80
2011,06,26,02,42,9.80
2011,06,26,02,43,9.80
2011,06,26,02,44,9.80
2011,06,26,02,45,9.80
2011,06,26,02,47,9.80
2011,06,26,02,48,9.80
2011,06,26,02,49,9.80
2011,06,26,02,50,9.80
2011,06,26,02,51,9.80
2011,06,26,02,53,9.80
2011,06,26,02,54,9.80
2011,06,26,02,55,9.80
2011,06,26,02,56,9.80
2011,06,26,02,57,9.80
2011,06,26,02,58,9.90
2011,06,26,02,59,9.90
2011,06,26,03,00,9.90
2011,06,26,03,01,9.90
2011,06,26,03,03,9.80
2011,06,26,03,04,9.80
2011,06,26,03,05,9.80
2011,06,26,03,07,9.80
2011,06,26,03,08,9.80
2011,06,26,03,09,9.90
2011,06,26,03,10,9.90
2011,06,26,03,11,9.90
2011,06,26,03,12,9.90
2011,06,26,03,13,9.90
2011,06,26,03,14,9.90
2011,06,26,03,16,9.90
2011,06,26,03,17,10.00
2011,06,26,03,18,10.00
2011,06,26,03,19,10.00
2011,06,26,03,20,10.00
2011,06,26,03,21,10.00
2011,06,26,03,22,10.10
2011,06,26,03,23,10.10
2011,06,26,03,24,10.10
2011,06,26,03,25,10.10
2011,06,26,03,26,10.10
2011,06,26,03,27,10.10
2011,06,26,03,28,10.10
2011,06,26,03,30,10.10
2011,06,26,03,31,10.10
2011,06,26,03,32,10.10
2011,06,26,03,33,10.00
2011,06,26,03,35,10.00
2011,06,26,03,36,10.00
2011,06,26,03,37,10.00
2011,06,26,03,38,10.00
2011,06,26,03,39,10.10
2011,06,26,03,40,10.10
2011,06,26,03,41,10.10
2011,06,26,03,42,10.10
2011,06,26,03,43,10.10
2011,06,26,03,44,10.10
2011,06,26,03,45,10.10
2011,06,26,03,46,10.20
2011,06,26,03,47,10.20
2011,06,26,03,48,10.20
2011,06,26,03,49,10.20
2011,06,26,03,51,10.20
2011,06,26,03,52,10.20
2011,06,26,03,53,10.20
2011,06,26,03,54,10.20
2011,06,26,03,56,10.20
2011,06,26,03,57,10.20
2011,06,26,03,58,10.20
2011,06,26,03,59,10.20
2011,06,26,04,01,10.20
2011,06,26,04,02,10.20
2011,06,26,04,03,10.20
2011,06,26,04,04,10.10
2011,06,26,04,06,10.10
2011,06,26,04,07,10.10
2011,06,26,04,08,10.10
2011,06,26,04,09,10.00
2011,06,26,04,11,9.90
2011,06,26,04,12,9.80
2011,06,26,04,13,9.80
2011,06,26,04,15,9.70
2011,06,26,04,16,9.60
2011,06,26,04,17,9.50
2011,06,26,04,18,9.50
2011,06,26,04,20,9.40
2011,06,26,04,21,9.40
2011,06,26,04,22,9.30
2011,06,26,04,23,9.30
2011,06,26,04,24,9.30
2011,06,26,04,25,9.30
2011,06,26,04,26,9.40
2011,06,26,04,27,9.40
2011,06,26,04,28,9.50
2011,06,26,04,30,9.50
2011,06,26,04,31,9.50
2011,06,26,04,32,9.50
2011,06,26,04,33,9.50
2011,06,26,04,34,9.50
2011,06,26,04,35,9.40
2011,06,26,04,36,9.40
2011,06,26,04,37,9.40
2011,06,26,04,39,9.40
2011,06,26,04,40,9.40
2011,06,26,04,41,9.40
2011,06,26,04,42,9.40
2011,06,26,04,43,9.50
2011,06,26,04,44,9.50
2011,06,26,04,46,9.60
2011,06,26,04,47,9.60
2011,06,26,04,48,9.60
2011,06,26,04,49,9.70
2011,06,26,04,50,9.70
2011,06,26,04,51,9.70
2011,06,26,04,52,9.70
2011,06,26,04,53,9.70
2011,06,26,04,54,9.70
2011,06,26,04,55,9.70
2011,06,26,04,56,9.70
2011,06,26,04,57,9.70
2011,06,26,04,58,9.70
2011,06,26,04,59,9.70
2011,06,26,05,00,9.70
2011,06,26,05,01,9.70
2011,06,26,05,02,9.70
2011,06,26,05,03,9.70
2011,06,26,05,05,9.70
2011,06,26,05,06,9.60
2011,06,26,05,07,9.60
2011,06,26,05,08,9.50
2011,06,26,05,10,9.40
2011,06,26,05,11,9.40
2011,06,26,05,12,9.30
2011,06,26,05,13,9.30
2011,06,26,05,14,9.20
2011,06,26,05,15,9.20
2011,06,26,05,16,9.20
2011,06,26,05,17,9.20
2011,06,26,05,18,9.20
2011,06,26,05,19,9.20
2011,06,26,05,21,9.20
2011,06,26,05,22,9.20
2011,06,26,05,23,9.20
2011,06,26,05,24,9.20
2011,06,26,05,26,9.10
2011,06,26,05,27,9.10
2011,06,26,05,28,9.10
2011,06,26,05,29,9.10
2011,06,26,05,31,9.10
2011,06,26,05,32,9.10
2011,06,26,05,33,9.10
2011,06,26,05,34,9.10
2011,06,26,05,36,9.10
2011,06,26,05,37,9.10
2011,06,26,05,38,9.10
2011,06,26,05,39,9.00
2011,06,26,05,40,9.00
2011,06,26,05,42,8.90
2011,06,26,05,43,8.90
2011,06,26,05,44,8.90
2011,06,26,05,45,8.80
2011,06,26,05,47,8.80
2011,06,26,05,48,8.80
2011,06,26,05,49,8.80
2011,06,26,05,50,8.80
2011,06,26,05,51,8.80
2011,06,26,05,53,8.70
2011,06,26,05,54,8.80
2011,06,26,05,55,8.70
2011,06,26,05,56,8.80
2011,06,26,05,58,8.80
2011,06,26,05,59,8.80
2011,06,26,06,00,8.80
2011,06,26,06,01,8.80
2011,06,26,06,02,8.80
2011,06,26,06,03,8.80
2011,06,26,06,04,8.80
2011,06,26,06,05,8.80
2011,06,26,06,06,8.80
2011,06,26,06,07,8.80
2011,06,26,06,08,8.80
2011,06,26,06,09,8.80
2011,06,26,06,10,8.80
2011,06,26,06,11,8.80
2011,06,26,06,13,8.80
2011,06,26,06,14,8.80
2011,06,26,06,15,8.80
2011,06,26,06,16,8.80
2011,06,26,06,18,8.80
2011,06,26,06,19,8.80
2011,06,26,06,20,8.80
2011,06,26,06,21,8.80
2011,06,26,06,22,8.80
2011,06,26,06,24,8.90
2011,06,26,06,25,9.00
2011,06,26,06,26,9.10
2011,06,26,06,27,9.20
2011,06,26,06,29,9.30
2011,06,26,06,30,9.40
2011,06,26,06,31,9.50
2011,06,26,06,32,9.60
2011,06,26,06,34,9.60
2011,06,26,06,35,9.80
2011,06,26,06,36,9.80
2011,06,26,06,37,9.90
2011,06,26,06,38,10.00
2011,06,26,06,40,10.10
2011,06,26,06,41,10.30
2011,06,26,06,42,10.40
2011,06,26,06,43,10.60
2011,06,26,06,44,10.70
2011,06,26,06,46,10.80
2011,06,26,06,47,10.90
2011,06,26,06,48,11.10
2011,06,26,06,49,11.20
2011,06,26,06,51,11.20
2011,06,26,06,52,11.30
2011,06,26,06,53,11.40
2011,06,26,06,55,11.40
2011,06,26,06,56,11.40
2011,06,26,06,57,11.50
2011,06,26,06,58,11.60
2011,06,26,06,59,11.70
2011,06,26,07,01,11.70
2011,06,26,07,02,11.80
2011,06,26,07,03,11.80
2011,06,26,07,04,11.80
2011,06,26,07,06,11.80
2011,06,26,07,07,11.90
2011,06,26,07,08,12.10
2011,06,26,07,09,12.10
2011,06,26,07,11,12.10
2011,06,26,07,12,12.20
2011,06,26,07,13,12.20
2011,06,26,07,14,12.20
2011,06,26,07,15,12.20
2011,06,26,07,17,12.30
2011,06,26,07,18,12.30
2011,06,26,07,19,12.30
2011,06,26,07,20,12.30
2011,06,26,07,21,12.30
2011,06,26,07,23,12.40
2011,06,26,07,24,12.60
2011,06,26,07,25,12.60
2011,06,26,07,26,12.70
2011,06,26,07,28,12.70
2011,06,26,07,29,12.70
2011,06,26,07,30,12.80
2011,06,26,07,31,12.80
2011,06,26,07,33,12.80
2011,06,26,07,34,12.90
2011,06,26,07,35,12.90
2011,06,26,07,36,12.90
2011,06,26,07,37,13.00
2011,06,26,07,39,12.90
2011,06,26,07,40,12.90
2011,06,26,07,41,12.90
2011,06,26,07,42,12.90
2011,06,26,07,44,12.90
2011,06,26,07,45,12.80
2011,06,26,07,46,12.80
2011,06,26,07,47,12.80
2011,06,26,07,49,12.80
2011,06,26,07,50,12.80
2011,06,26,07,51,12.90
2011,06,26,07,52,12.90
2011,06,26,07,54,12.90
2011,06,26,07,55,13.00
2011,06,26,07,56,13.10
2011,06,26,07,57,13.10
2011,06,26,07,59,13.20
2011,06,26,08,00,13.30
2011,06,26,08,01,13.30
2011,06,26,08,02,13.30
2011,06,26,08,03,13.30
2011,06,26,08,04,13.30
2011,06,26,08,05,13.30
2011,06,26,08,06,13.30
2011,06,26,08,07,13.30
2011,06,26,08,09,13.30
2011,06,26,08,10,13.30
2011,06,26,08,11,13.30
2011,06,26,08,12,13.20
2011,06,26,08,14,13.20
2011,06,26,08,15,13.20
2011,06,26,08,16,13.20
2011,06,26,08,18,13.20
2011,06,26,08,19,13.20
2011,06,26,08,20,13.20
2011,06,26,08,21,13.20
2011,06,26,08,23,13.20
2011,06,26,08,24,13.20
2011,06,26,08,25,13.30
2011,06,26,08,26,13.30
2011,06,26,08,28,13.30
2011,06,26,08,29,13.30
2011,06,26,08,30,13.30
2011,06,26,08,31,13.20
2011,06,26,08,33,13.20
2011,06,26,08,34,13.20
2011,06,26,08,35,13.20
2011,06,26,08,37,13.20
2011,06,26,08,38,13.20
2011,06,26,08,39,13.20
2011,06,26,08,40,13.20
2011,06,26,08,41,13.20
2011,06,26,08,43,13.20
2011,06,26,08,44,13.20
2011,06,26,08,45,13.30
2011,06,26,08,47,13.30
2011,06,26,08,48,13.40
2011,06,26,08,49,13.50
2011,06,26,08,51,13.60
2011,06,26,08,52,13.60
2011,06,26,08,53,13.70
2011,06,26,08,54,13.70
2011,06,26,08,56,13.70
2011,06,26,08,57,13.80
2011,06,26,08,58,13.80
2011,06,26,08,59,13.90
2011,06,26,09,01,13.90
2011,06,26,09,02,13.90
2011,06,26,09,03,13.90
2011,06,26,09,04,13.90
2011,06,26,09,05,13.90
2011,06,26,09,06,13.90
2011,06,26,09,07,13.90
2011,06,26,09,08,13.90
2011,06,26,09,10,13.90
2011,06,26,09,11,13.90
2011,06,26,09,12,14.00
2011,06,26,09,13,14.10
2011,06,26,09,15,14.20
2011,06,26,09,16,14.30
2011,06,26,09,17,14.30
2011,06,26,09,18,14.30
2011,06,26,09,19,14.40
2011,06,26,09,21,14.50
2011,06,26,09,22,14.60
2011,06,26,09,23,14.70
2011,06,26,09,24,14.80
2011,06,26,09,26,14.90
2011,06,26,09,27,14.90
2011,06,26,09,28,15.00
2011,06,26,09,30,15.10
2011,06,26,09,31,15.20
2011,06,26,09,32,15.20
2011,06,26,09,33,15.10
2011,06,26,09,35,15.00
2011,06,26,09,36,14.80
2011,06,26,09,37,14.80
2011,06,26,09,38,14.70
2011,06,26,09,39,14.70
2011,06,26,09,40,14.70
2011,06,26,09,41,14.70
2011,06,26,09,42,14.70
2011,06,26,09,43,14.80
2011,06,26,09,44,14.80
2011,06,26,09,45,14.90
2011,06,26,09,46,15.10
2011,06,26,09,47,15.30
2011,06,26,09,48,15.40
2011,06,26,09,50,15.50
2011,06,26,09,51,15.60
2011,06,26,09,52,15.60
2011,06,26,09,53,15.70
2011,06,26,09,55,15.80
2011,06,26,09,56,15.90
2011,06,26,09,57,16.10
2011,06,26,09,58,16.10
2011,06,26,09,59,16.10
2011,06,26,10,00,16.10
2011,06,26,10,01,16.20
2011,06,26,10,02,16.30
2011,06,26,10,03,16.40
2011,06,26,10,05,16.40
2011,06,26,10,06,16.40
2011,06,26,10,07,16.50
2011,06,26,10,08,16.50
2011,06,26,10,09,16.40
2011,06,26,10,11,16.40
2011,06,26,10,12,16.30
2011,06,26,10,13,16.30
2011,06,26,10,14,16.40
2011,06,26,10,16,16.50
2011,06,26,10,17,16.60
2011,06,26,10,18,16.70
2011,06,26,10,19,16.80
2011,06,26,10,20,16.90
2011,06,26,10,22,16.90
2011,06,26,10,23,16.90
2011,06,26,10,24,16.90
2011,06,26,10,25,17.00
2011,06,26,10,27,17.10
2011,06,26,10,28,17.10
2011,06,26,10,29,17.20
2011,06,26,10,30,17.20
2011,06,26,10,31,17.20
2011,06,26,10,32,17.20
2011,06,26,10,33,17.10
2011,06,26,10,35,17.10
2011,06,26,10,36,17.10
2011,06,26,10,37,17.00
2011,06,26,10,38,16.90
2011,06,26,10,40,16.90
2011,06,26,10,41,16.80
2011,06,26,10,42,16.80
2011,06,26,10,44,16.80
2011,06,26,10,45,16.80
2011,06,26,10,46,16.90
2011,06,26,10,48,17.00
2011,06,26,10,49,17.10
2011,06,26,10,50,17.00
2011,06,26,10,51,17.00
2011,06,26,10,52,17.00
2011,06,26,10,53,17.10
2011,06,26,10,54,17.10
2011,06,26,10,55,17.20
2011,06,26,10,57,17.10
2011,06,26,10,58,17.00
2011,06,26,10,59,16.90
2011,06,26,11,00,16.90
2011,06,26,11,01,16.90
2011,06,26,11,03,17.00
2011,06,26,11,04,17.20
2011,06,26,11,05,17.20
2011,06,26,11,06,17.10
2011,06,26,11,07,16.90
2011,06,26,11,09,16.90
2011,06,26,11,10,16.90
2011,06,26,11,11,16.90
2011,06,26,11,13,16.90
2011,06,26,11,14,17.10
2011,06,26,11,15,17.10
2011,06,26,11,16,17.10
2011,06,26,11,18,17.10
2011,06,26,11,19,17.10
2011,06,26,11,20,17.10
2011,06,26,11,21,17.10
2011,06,26,11,23,17.10
2011,06,26,11,24,17.20
2011,06,26,11,25,17.20
2011,06,26,11,26,17.20
2011,06,26,11,28,17.20
2011,06,26,11,29,17.20
2011,06,26,11,30,17.10
2011,06,26,11,32,17.10
2011,06,26,11,33,17.00
2011,06,26,11,34,17.10
2011,06,26,11,35,17.20
2011,06,26,11,36,17.30
2011,06,26,11,38,17.40
2011,06,26,11,39,17.40
2011,06,26,11,40,17.40
2011,06,26,11,41,17.30
2011,06,26,11,42,17.30
2011,06,26,11,43,17.30
2011,06,26,11,44,17.30
2011,06,26,11,45,17.20
2011,06,26,11,46,17.20
2011,06,26,11,48,17.30
2011,06,26,11,49,17.60
2011,06,26,11,50,17.70
2011,06,26,11,51,17.80
2011,06,26,11,52,17.80
2011,06,26,11,54,17.80
2011,06,26,11,55,17.80
2011,06,26,11,56,17.70
2011,06,26,11,57,17.60
2011,06,26,11,59,17.50
2011,06,26,12,00,17.50
2011,06,26,12,01,17.50
2011,06,26,12,03,17.50
2011,06,26,12,04,17.60
2011,06,26,12,05,17.80
2011,06,26,12,06,17.80
2011,06,26,12,07,17.80
2011,06,26,12,09,17.80
2011,06,26,12,10,17.90
2011,06,26,12,11,18.10
2011,06,26,12,13,18.10
2011,06,26,12,14,18.10
2011,06,26,12,15,18.20
2011,06,26,12,16,18.20
2011,06,26,12,18,18.20
2011,06,26,12,19,18.10
2011,06,26,12,20,18.10
2011,06,26,12,21,18.10
2011,06,26,12,23,18.20
2011,06,26,12,24,18.40
2011,06,26,12,25,18.40
2011,06,26,12,26,18.40
2011,06,26,12,27,18.30
2011,06,26,12,29,18.30
2011,06,26,12,30,18.20
2011,06,26,12,31,18.20
2011,06,26,12,32,18.40
2011,06,26,12,33,18.50
2011,06,26,12,34,18.60
2011,06,26,12,35,18.70
2011,06,26,12,36,18.80
2011,06,26,12,37,18.80
2011,06,26,12,38,18.80
2011,06,26,12,39,18.80
2011,06,26,12,40,18.80
2011,06,26,12,41,18.70
2011,06,26,12,42,18.70
2011,06,26,12,43,18.70
2011,06,26,12,44,18.70
2011,06,26,12,45,18.70
2011,06,26,12,46,18.70
2011,06,26,12,47,18.60
2011,06,26,12,49,18.50
2011,06,26,12,50,18.20
2011,06,26,12,51,18.00
2011,06,26,12,52,17.80
2011,06,26,12,53,17.70
2011,06,26,12,54,17.70
2011,06,26,12,55,17.70
2011,06,26,12,56,17.80
2011,06,26,12,57,17.80
2011,06,26,12,58,17.90
2011,06,26,12,59,17.90
2011,06,26,13,00,17.90
2011,06,26,13,01,17.90
2011,06,26,13,02,17.90
2011,06,26,13,03,17.90
2011,06,26,13,04,17.90
2011,06,26,13,05,17.90
2011,06,26,13,06,17.90
2011,06,26,13,07,17.90
2011,06,26,13,08,17.80
2011,06,26,13,09,17.80
2011,06,26,13,10,17.80
2011,06,26,13,11,17.80
2011,06,26,13,12,17.90
2011,06,26,13,13,18.10
2011,06,26,13,14,18.10
2011,06,26,13,15,18.20
2011,06,26,13,16,18.30
2011,06,26,13,17,18.40
2011,06,26,13,18,18.50
2011,06,26,13,19,18.50
2011,06,26,13,20,18.60
2011,06,26,13,21,18.60
2011,06,26,13,22,18.60
2011,06,26,13,23,18.70
2011,06,26,13,24,18.70
2011,06,26,13,25,18.70
2011,06,26,13,26,18.70
2011,06,26,13,27,18.60
2011,06,26,13,28,18.60
2011,06,26,13,29,18.60
2011,06,26,13,31,18.60
2011,06,26,13,33,18.50
2011,06,26,13,34,18.50
2011,06,26,13,35,18.40
2011,06,26,13,36,18.40
2011,06,26,13,37,18.50
2011,06,26,13,39,18.60
2011,06,26,13,40,18.70
2011,06,26,13,41,18.80
2011,06,26,13,43,18.80
2011,06,26,13,44,18.80
2011,06,26,13,45,18.70
2011,06,26,13,46,18.70
2011,06,26,13,48,18.70
2011,06,26,13,49,18.60
2011,06,26,13,50,18.60
2011,06,26,13,51,18.60
2011,06,26,13,53,18.60
2011,06,26,13,54,18.60
2011,06,26,13,55,18.70
2011,06,26,13,56,18.70
2011,06,26,13,58,18.80
2011,06,26,13,59,18.90
2011,06,26,14,00,19.10
2011,06,26,14,01,19.10
2011,06,26,14,02,19.20
2011,06,26,14,04,19.30
2011,06,26,14,05,19.30
2011,06,26,14,06,19.40
2011,06,26,14,08,19.30
2011,06,26,14,09,19.20
2011,06,26,14,10,19.10
2011,06,26,14,11,19.10
2011,06,26,14,12,19.20
2011,06,26,14,14,19.20
2011,06,26,14,15,19.20
2011,06,26,14,17,19.30
2011,06,26,14,18,19.40
2011,06,26,14,20,19.60
2011,06,26,14,21,19.70
2011,06,26,14,23,19.80
2011,06,26,14,25,19.80
2011,06,26,14,26,19.80
2011,06,26,14,27,19.80
2011,06,26,14,29,19.70
2011,06,26,14,31,19.60
2011,06,26,14,32,19.40
2011,06,26,14,33,19.40
2011,06,26,14,34,19.50
2011,06,26,14,36,19.50
2011,06,26,14,37,19.60
2011,06,26,14,38,19.60
2011,06,26,14,39,19.70
2011,06,26,14,41,19.50
2011,06,26,14,42,19.30
2011,06,26,14,43,19.20
2011,06,26,14,44,19.10
2011,06,26,14,46,19.20
2011,06,26,14,47,19.30
2011,06,26,14,48,19.20
2011,06,26,14,49,19.20
2011,06,26,14,51,19.20
2011,06,26,14,52,19.10
2011,06,26,14,53,19.10
2011,06,26,14,54,19.10
2011,06,26,14,56,19.20
2011,06,26,14,57,19.30
2011,06,26,14,58,19.50
2011,06,26,14,59,19.70
2011,06,26,15,01,19.70
2011,06,26,15,02,19.90
2011,06,26,15,03,20.10
2011,06,26,15,05,20.10
2011,06,26,15,06,20.10
2011,06,26,15,07,20.10
2011,06,26,15,09,20.10
2011,06,26,15,10,19.90
2011,06,26,15,11,19.90
2011,06,26,15,12,19.90
2011,06,26,15,13,20.00
2011,06,26,15,15,20.10
2011,06,26,15,16,20.20
2011,06,26,15,17,20.30
2011,06,26,15,19,20.30
2011,06,26,15,20,20.30
2011,06,26,15,21,20.30
2011,06,26,15,22,20.30
2011,06,26,15,24,20.20
2011,06,26,15,25,20.20
2011,06,26,15,26,20.30
2011,06,26,15,27,20.40
2011,06,26,15,29,20.40
2011,06,26,15,30,20.40
2011,06,26,15,31,20.40
2011,06,26,15,33,20.40
2011,06,26,15,34,20.40
2011,06,26,15,35,20.30
2011,06,26,15,36,20.30
2011,06,26,15,37,20.30
2011,06,26,15,39,20.20
2011,06,26,15,40,20.30
2011,06,26,15,41,20.20
2011,06,26,15,42,20.20
2011,06,26,15,44,20.20
2011,06,26,15,45,20.20
2011,06,26,15,46,20.30
2011,06,26,15,47,20.30
2011,06,26,15,49,20.30
2011,06,26,15,50,20.20
2011,06,26,15,51,20.10
2011,06,26,15,52,20.00
2011,06,26,15,54,19.90
2011,06,26,15,55,20.10
2011,06,26,15,56,20.10
2011,06,26,15,58,20.10
2011,06,26,15,59,20.10
2011,06,26,16,00,20.10
2011,06,26,16,01,20.00
2011,06,26,16,03,19.90
2011,06,26,16,04,19.80
2011,06,26,16,05,19.60
2011,06,26,16,06,19.40
2011,06,26,16,08,19.20
2011,06,26,16,09,19.10
2011,06,26,16,10,19.00
2011,06,26,16,11,18.90
2011,06,26,16,13,18.80
2011,06,26,16,14,18.70
2011,06,26,16,15,18.60
2011,06,26,16,16,18.60
2011,06,26,16,18,18.50
2011,06,26,16,19,18.50
2011,06,26,16,20,18.40
2011,06,26,16,22,18.40
2011,06,26,16,23,18.40
2011,06,26,16,24,18.40
2011,06,26,16,25,18.40
2011,06,26,16,27,18.40
2011,06,26,16,28,18.40
2011,06,26,16,29,18.50
2011,06,26,16,30,18.50
2011,06,26,16,32,18.50
2011,06,26,16,33,18.60
2011,06,26,16,34,18.70
2011,06,26,16,35,18.70
2011,06,26,16,37,18.70
2011,06,26,16,38,18.70
2011,06,26,16,39,18.60
2011,06,26,16,40,18.60
2011,06,26,16,41,18.60
2011,06,26,16,43,18.60
2011,06,26,16,44,18.70
2011,06,26,16,45,18.80
2011,06,26,16,46,18.80
2011,06,26,16,48,18.90
2011,06,26,16,49,19.10
2011,06,26,16,50,19.20
2011,06,26,16,51,19.30
2011,06,26,16,53,19.40
2011,06,26,16,54,19.60
2011,06,26,16,55,19.70
2011,06,26,16,57,19.70
2011,06,26,16,58,19.80
2011,06,26,16,59,19.80
2011,06,26,17,00,19.80
2011,06,26,17,01,19.80
2011,06,26,17,03,19.70
2011,06,26,17,04,19.70
2011,06,26,17,05,19.80
2011,06,26,17,06,19.80
2011,06,26,17,08,19.90
2011,06,26,17,09,20.00
2011,06,26,17,10,20.10
2011,06,26,17,11,20.10
2011,06,26,17,13,20.10
2011,06,26,17,14,20.10
2011,06,26,17,15,20.10
2011,06,26,17,16,20.20
2011,06,26,17,18,20.20
2011,06,26,17,19,20.30
2011,06,26,17,20,20.20
2011,06,26,17,21,20.20
2011,06,26,17,23,20.10
2011,06,26,17,24,20.10
2011,06,26,17,25,20.00
2011,06,26,17,26,20.00
2011,06,26,17,27,19.90
2011,06,26,17,28,19.90
2011,06,26,17,29,19.90
2011,06,26,17,30,19.90
2011,06,26,17,31,19.80
2011,06,26,17,32,19.80
2011,06,26,17,33,19.80
2011,06,26,17,34,19.80
2011,06,26,17,35,19.80
2011,06,26,17,36,19.80
2011,06,26,17,37,19.80
2011,06,26,17,39,19.80
2011,06,26,17,40,19.80
2011,06,26,17,41,19.70
2011,06,26,17,42,19.70
2011,06,26,17,44,19.60
2011,06,26,17,45,19.60
2011,06,26,17,46,19.60
2011,06,26,17,47,19.60
2011,06,26,17,49,19.60
2011,06,26,17,50,19.70
2011,06,26,17,51,19.70
2011,06,26,17,52,19.70
2011,06,26,17,54,19.80
2011,06,26,17,55,19.80
2011,06,26,17,56,19.80
2011,06,26,17,57,19.80
2011,06,26,17,58,19.80
2011,06,26,17,59,19.80
2011,06,26,18,00,19.80
2011,06,26,18,01,19.80
2011,06,26,18,02,19.80
2011,06,26,18,03,19.90
2011,06,26,18,04,19.90
2011,06,26,18,05,19.90
2011,06,26,18,06,19.90
2011,06,26,18,07,19.90
2011,06,26,18,08,19.90
2011,06,26,18,09,19.90
2011,06,26,18,10,20.00
2011,06,26,18,11,20.10
2011,06,26,18,12,20.10
2011,06,26,18,13,20.10
2011,06,26,18,14,20.20
2011,06,26,18,15,20.20
2011,06,26,18,17,20.20
2011,06,26,18,18,20.20
2011,06,26,18,19,20.20
2011,06,26,18,20,20.20
2011,06,26,18,21,20.20
2011,06,26,18,22,20.10
2011,06,26,18,23,20.00
2011,06,26,18,24,19.90
2011,06,26,18,25,19.90
2011,06,26,18,26,19.80
2011,06,26,18,27,19.80
2011,06,26,18,28,19.70
2011,06,26,18,29,19.70
2011,06,26,18,30,19.70
2011,06,26,18,32,19.70
2011,06,26,18,33,19.60
2011,06,26,18,34,19.60
2011,06,26,18,35,19.60
2011,06,26,18,37,19.60
2011,06,26,18,38,19.60
2011,06,26,18,39,19.60
2011,06,26,18,40,19.60
2011,06,26,18,41,19.50
2011,06,26,18,43,19.50
2011,06,26,18,44,19.40
2011,06,26,18,45,19.40
2011,06,26,18,46,19.40
2011,06,26,18,48,19.40
2011,06,26,18,49,19.30
2011,06,26,18,50,19.30
2011,06,26,18,51,19.20
2011,06,26,18,53,19.20
2011,06,26,18,54,19.20
2011,06,26,18,55,19.10
2011,06,26,18,56,19.10
2011,06,26,18,57,19.10
2011,06,26,18,58,19.00
2011,06,26,18,59,18.90
2011,06,26,19,00,18.90
2011,06,26,19,01,18.90
2011,06,26,19,02,18.80
2011,06,26,19,04,18.80
2011,06,26,19,05,18.70
2011,06,26,19,07,18.60
2011,06,26,19,08,18.60
2011,06,26,19,09,18.50
2011,06,26,19,10,18.50
2011,06,26,19,12,18.40
2011,06,26,19,13,18.40
2011,06,26,19,14,18.30
2011,06,26,19,15,18.30
2011,06,26,19,16,18.20
2011,06,26,19,18,18.20
2011,06,26,19,19,18.20
2011,06,26,19,20,18.20
2011,06,26,19,21,18.20
2011,06,26,19,22,18.20
2011,06,26,19,23,18.20
2011,06,26,19,24,18.20
2011,06,26,19,25,18.20
2011,06,26,19,27,18.20
2011,06,26,19,29,18.10
2011,06,26,19,30,18.10
2011,06,26,19,32,18.10
2011,06,26,19,33,18.10
2011,06,26,19,34,18.10
2011,06,26,19,35,18.10
2011,06,26,19,37,18.10
2011,06,26,19,38,18.10
2011,06,26,19,39,18.10
2011,06,26,19,41,18.10
2011,06,26,19,42,18.10
2011,06,26,19,43,18.10
2011,06,26,19,44,18.10
2011,06,26,19,45,18.10
2011,06,26,19,47,18.10
2011,06,26,19,48,18.10
2011,06,26,19,49,18.10
2011,06,26,19,50,18.10
2011,06,26,19,52,18.10
2011,06,26,19,53,18.10
2011,06,26,19,54,18.10
2011,06,26,19,56,18.10
2011,06,26,19,57,18.10
2011,06,26,19,58,18.10
2011,06,26,19,59,18.20
2011,06,26,20,01,18.20
2011,06,26,20,02,18.20
2011,06,26,20,03,18.20
2011,06,26,20,04,18.10
2011,06,26,20,05,18.10
2011,06,26,20,07,18.10
2011,06,26,20,08,18.10
2011,06,26,20,09,18.10
2011,06,26,20,10,18.10
2011,06,26,20,12,18.10
2011,06,26,20,13,18.00
2011,06,26,20,14,18.00
2011,06,26,20,15,17.90
2011,06,26,20,17,17.90
2011,06,26,20,18,17.90
2011,06,26,20,19,17.90
2011,06,26,20,20,17.90
2011,06,26,20,22,17.90
2011,06,26,20,23,17.90
2011,06,26,20,24,17.90
2011,06,26,20,25,17.80
2011,06,26,20,27,17.80
2011,06,26,20,28,17.80
2011,06,26,20,29,17.80
2011,06,26,20,30,17.70
2011,06,26,20,32,17.70
2011,06,26,20,33,17.70
2011,06,26,20,34,17.70
2011,06,26,20,35,17.60